Regional Weather Roundup
Issued by NWS

Home | Current Version | Previous Version | Graphics & Text | Print | Product List | Glossary On
Versions: 1 2 3 4 5 6 7 8 9 10 11 12 13 14 15 16 17 18 19 20 21 22 23 24 25 26 27 28 29 30 31 32 33 34 35 36 37 38 39 40 41 42 43 44 45 46 47 48 49 50
029
ASUS43 KMPX 240101
RWRMN
WEATHER ROUNDUP FOR MINNESOTA
NATIONAL WEATHER SERVICE TWIN CITIES/CHANHASSEN MN
700 PM CST THU NOV 23 2017


NOTE: "FAIR" INDICATES FEW OR NO CLOUDS BELOW 12,000 FEET WITH NO
SIGNIFICANT WEATHER AND/OR OBSTRUCTIONS TO VISIBILITY. N/A MEANS
CURRENT SKY AND/OR WEATHER CONDITIONS ARE NOT AVAILABLE.

MNZ060>063-068>070-240200-
   Twin Cities Metro

CITY           SKY/WX    TMP DP  RH WIND       PRES   REMARKS
TWIN CITIES    PTCLDY    42  28  57 S9        29.73F
ST PAUL        PTCLDY    39  27  62 SE8       29.75F
CRYSTAL        PTCLDY    41  24  51 S10       29.71F
BLAINE         PTCLDY    43  28  56 S14       29.71F
LAKEVILLE        N/A     37  28  70 S7        29.74F
EDEN PRAIRIE   PTCLDY    41  27  57 S12       29.72F
SOUTH ST PAUL  CLEAR     40  26  56 S5        29.74F
LAKE ELMO      FAIR      37  28  70 S8        29.74F
$$
MNZ001>005-007-008-013>017-022>024-027-028-240200-
   Northwest Minnesota

CITY           SKY/WX    TMP DP  RH WIND       PRES   REMARKS
BEMIDJI        CLEAR     35  29  79 S9        29.51F WCI  28
HALLOCK        CLOUDY    37  32  81 S18       29.38F
ROSEAU         PTCLDY    30  25  80 SE7       29.44F WCI  23
WARROAD        CLOUDY    28  25  86 SE7       29.46F WCI  21
CROOKSTON      CLOUDY    39  30  70 S16       29.45F
FOSSTON        MOCLDY    37  30  75 S17       29.48F
DETROIT LAKES  CLEAR     37  30  75 S9        29.56F
MOORHEAD       CLEAR     39  28  65 S18       29.52F
PARK RAPIDS    CLEAR     37  29  72 S10       29.55F
MAHNOMEN       MOCLDY    41  32  69 S17G25    29.50F
$$
MNZ006-009>011-018-025>026-240200-
   North Central Minnesota

CITY           SKY/WX    TMP DP  RH WIND       PRES   REMARKS
BAUDETTE       CLOUDY    26  23  88 SE7       29.48F WCI  18
FLAG ISLAND    CLOUDY    27  25  93 S20       29.44F WCI  13
INTL FALLS     PTCLDY    30  23  75 SE6       29.53F WCI  24
WASKISH        CLOUDY    30  27  86 S5        29.49F WCI  25
BIG FORK       CLOUDY    34  25  69 S8        29.54F WCI  27
LONGVILLE      CLEAR     37  27  65 S10       29.57F
GRAND RAPIDS   CLOUDY    35  26  69 S14       29.59F WCI  26
CRANE LAKE     CLOUDY    28  25  86 CALM      29.58F
ORR            CLOUDY    30  21  69 S6        29.53F WCI  24
COOK           CLOUDY    32  25  74 S6        29.57F WCI  26
WALKER         FAIR      38  28  69 S9G22     29.54F
$$
MNZ012-019>021-037-240200-
   Northeast Minnesota

CITY           SKY/WX    TMP DP  RH WIND       PRES   REMARKS
DULUTH         CLOUDY    34  25  69 S10       29.62F WCI  26
ELY            CLOUDY    30  25  80 S7        29.59F WCI  23
HIBBING        CLOUDY    31  24  75 S5        29.59F WCI  26
EVELETH        CLOUDY    32  23  68 S6        29.60F WCI  27
DULUTH HARBOR  CLOUDY    37  28  70 S5        29.66F
TWO HARBORS    MOCLDY    37  28  70 CALM      29.63F
SILVER BAY     CLOUDY    34  28  80 CALM      29.64F
GRAND MARAIS     N/A     36  30  79 S5        29.69F
G MARAIS ARPRT CLOUDY    28  23  80 S5        29.64F WCI  23
$$
MNZ029>031-032-039>041-046>048-054>057-064-240200-
   West Central Minnesota

CITY           SKY/WX    TMP DP  RH WIND       PRES   REMARKS
FERGUS FALLS   PTCLDY    41  30  65 S13       29.59F
WHEATON        CLOUDY    48  36  61 S9        29.59F
MORRIS         CLOUDY    41  30  65 S12       29.60F
ALEXANDRIA     PTCLDY    43  31  62 S9        29.61F
ELBOW LAKE     FAIR      40  31  69 S14       29.59F
WADENA         CLEAR     36  28  75 S7        29.58F
GLENWOOD       CLOUDY    41  30  65 S14       29.63F
APPLETON       CLEAR     46  34  61 S6        29.62F
BENSON         CLEAR     43  30  61 S8        29.64F
ORTONVILLE     PTCLDY    48  37  66 N6        29.61F
MADISON        CLOUDY    52  37  58 SW10      29.62F
WILLMAR        FAIR      39  30  70 S6        29.66F
$$
MNZ033>034-036-042>043-049>051-058-059-240200-
   Central Minnesota

CITY           SKY/WX    TMP DP  RH WIND       PRES   REMARKS
ST CLOUD       CLEAR     35  27  72 SE9       29.66F WCI  28
SAUK CENTRE    FAIR      36  29  76 SE7       29.63F
PAYNESVILLE    CLEAR     41  31  69 S13       29.65F
AITKIN         CLEAR     34  25  69 S8        29.61F WCI  27
PINE RIVER     CLEAR     34  27  75 S8        29.63F HAZE    WCI  27
BRAINERD       CLEAR     37  26  64 S9        29.62F
STAPLES        CLEAR     36  27  69 S9        29.60F
LITTLE FALLS   CLEAR     36  23  60 S7        29.64F
LITCHFIELD     CLEAR     43  30  61 S6        29.67F
BUFFALO        CLEAR     40  27  59 S8        29.70F
MAPLE LAKE     CLEAR     39  29  67 S7        29.69F
HUTCHINSON     CLOUDY    41  31  68 S6        29.70F
$$
MNZ037-044-045-052-053-240200-
   East Central Minnesota

CITY           SKY/WX    TMP DP  RH WIND       PRES   REMARKS
PRINCETON      CLEAR     37  27  65 SE8       29.68F
MORA           CLEAR     36  27  69 S6        29.70F
CAMBRIDGE      CLEAR     39  27  60 S8        29.69F
RUSH CITY      CLOUDY    37  25  60 S8        29.70
MOOSE LAKE     CLOUDY    36  25  64 S7        29.64F
HINCKLEY       FAIR      36  27  69 S7        29.67F
CLOQUET        CLOUDY    36  23  60 S7        29.63F
MCGREGOR       CLEAR     34  27  75 S7        29.63F WCI  28
$$
MNZ071>073-080-081-089-090-097-098-240200-
   Southwest Minnesota

CITY           SKY/WX    TMP DP  RH WIND       PRES   REMARKS
MONTEVIDEO     CLEAR     46  34  61 SW12      29.63F
GRANITE FALLS  CLEAR     46  34  65 S12       29.67F
CANBY          MOCLDY    55  38  51 SW16G23   29.63F
MARSHALL       CLOUDY    50  35  56 SW20      29.64F
REDWOOD FALLS  CLEAR     41  28  60 S13       29.67F
OLIVIA         CLEAR     41  32  70 S8        29.66F
PIPESTONE      CLOUDY    48  36  61 S10       29.69F
WINDOM         CLEAR     46  28  49 S13       29.72F
WORTHINGTON    CLEAR     47  33  58 S14       29.73F
JACKSON        CLEAR     43  30  61 S10       29.75F
SLAYTON        CLOUDY    46  35  63 S10       29.72F
$$
MNZ065>067-074>077-082>085-091>093-240200-
   South Central Minnesota

CITY           SKY/WX    TMP DP  RH WIND       PRES   REMARKS
MANKATO        CLEAR     41  29  62 S9        29.75F
NEW ULM        PTCLDY    43  28  56 CALM      29.71F
ST JAMES       CLOUDY    43  30  61 S10       29.74F
FAIRMONT       CLEAR     40  30  67 S13       29.76F
GLENCOE        CLEAR     42  31  65 S7        29.70F
FARIBAULT      CLEAR     39  28  65 S9        29.76F
OWATONNA       CLEAR     43  28  56 S12G18    29.77F
WASECA         MOCLDY    39  30  70 S10       29.78F
ALBERT LEA     CLEAR     43  27  52 S8        29.78F
$$
MNZ078>079-086>088-094>096-240200-
   Southeast Minnesota

CITY           SKY/WX    TMP DP  RH WIND       PRES   REMARKS
ROCHESTER      CLEAR     36  27  69 S10       29.79F
RED WING       MOCLDY    37  25  60 SE5       29.76F
STANTON        PTCLDY    40  28  62 S8        29.74F
DODGE CENTER   CLEAR     36  27  69 S10       29.78F
WINONA         CLEAR     34  27  75 CALM      29.82F
AUSTIN         CLEAR     36  27  69 S9        29.80F
PRESTON        CLEAR     35  25  68 S9        29.81F WCI  27
$$
ABBREVIATIONS USED IN REMARKS
   TC - TEMPERATURES IN CELSIUS
  WCI - WIND CHILL INDEX
   HX - HEAT INDEX
  VSB - VISIBILITY
$$




USA.gov is the U.S. government's official web portal to all federal, state and local government web resources and services.